Location: Sungai Bunut
(2.6333°N, 113.7333°E)
Time: 06:31:14
(UTC+00:00)

Vanguard 3 - Pass Details

Date: 06 December 2023
Orbit: 508 x 3239 km, 33.3° (Epoch: 21 February)

Event Time Altitude Azimuth Distance (km) Brightness Sun altitude
Rises 08:57:22 0° 225° (SW) 6,731 13.2 17.0°
Reaches altitude 10° 09:01:43 10° 221° (SW) 5,920 13.0 16.0°
Maximum altitude 09:21:02 61° 144° (SE) 3,466 10.5 11.6°
Drops below altitude 10° 09:37:39 10° 68° (ENE) 5,234 10.7 7.8°
Sets 09:41:10 0° 65° (ENE) 5,951 10.9 7.0°
